BRA1723 LFPG-SBGL

Flight info

Callsign BRA1723
Flight time N/A
Altitude 29000
Route LGL UT176 KURIS/N0492F310 UT176 TERPO UN872 ERIGA UZ218 FUJTI DCT ATLEN/N0451F230 N872 RALUS UN872 ESP/N0430F190 W8 BAROK/N0504F310 UN873 SAMAR N873 ODEGI/N0506F320 N873 IPERA/N0476F240 B623 CVS/N0511F280 UB623 RAKUD/N0479F240 B623 FNR/N0504F340 UN857 AMBET/N0496F360 UN857 MOLSU
Aircraft B77W/H-SDE1E2E3FGHIJ2J3J4J5M1RWXY/LB1D1

Departure

Time 2026-05-09 09:38
Airport Charles de Gaulle International Airport (LFPG)

Arrival

Time N/A
Airport Rio Galeão – Tom Jobim International Airport (SBGL)
Time Latitude Longitude Altitude Speed Heading
2026-05-09 09:11 49.01248 2.49427 354 ft 0 kts 84°
2026-05-09 09:23 49.01248 2.49425 354 ft 2 kts 85°
2026-05-09 09:24 49.01247 2.49395 359 ft 4 kts 83°
2026-05-09 09:24 49.01241 2.49362 359 ft 4 kts 52°
2026-05-09 09:24 49.01229 2.49345 365 ft 4 kts
2026-05-09 09:24 49.01204 2.49345 364 ft 4 kts 352°
2026-05-09 09:25 49.01184 2.49349 363 ft 2 kts 355°
2026-05-09 09:25 49.01180 2.49349 361 ft 2 kts 355°
2026-05-09 09:32 49.01300 2.49347 365 ft 24 kts 14°
2026-05-09 09:32 49.01382 2.49569 359 ft 25 kts 83°
2026-05-09 09:32 49.01397 2.49836 357 ft 25 kts 86°
2026-05-09 09:32 49.01412 2.50104 355 ft 25 kts 85°
2026-05-09 09:33 49.01426 2.50367 361 ft 25 kts 86°
2026-05-09 09:33 49.01440 2.50634 361 ft 25 kts 85°
2026-05-09 09:33 49.01455 2.50902 362 ft 25 kts 85°
2026-05-09 09:33 49.01470 2.51165 362 ft 22 kts 85°
2026-05-09 09:34 49.01540 2.51294 362 ft 10 kts
2026-05-09 09:34 49.01613 2.51287 362 ft 10 kts 356°
2026-05-09 09:34 49.01685 2.51279 361 ft 10 kts 356°
2026-05-09 09:36 49.02017 2.51312 367 ft 13 kts 43°
2026-05-09 09:36 49.02064 2.51432 367 ft 13 kts 72°
2026-05-09 09:36 49.02074 2.51515 365 ft 0 kts 84°
2026-05-09 09:37 49.02077 2.51631 364 ft 23 kts 91°
2026-05-09 09:38 49.02114 2.52244 363 ft 102 kts 88°
2026-05-09 09:38 49.02199 2.53773 359 ft 186 kts 85°
2026-05-09 09:38 49.02339 2.56002 694 ft 227 kts 86°
2026-05-09 09:38 49.02463 2.58341 2352 ft 214 kts 85°
2026-05-09 09:39 49.02585 2.60636 3476 ft 220 kts 87°
2026-05-09 09:39 49.02703 2.63074 3895 ft 237 kts 87°
2026-05-09 09:39 49.02832 2.65618 4540 ft 247 kts 87°
2026-05-09 09:39 49.02969 2.68303 5054 ft 258 kts 87°
2026-05-09 09:40 49.03110 2.71077 5720 ft 265 kts 87°
2026-05-09 09:40 49.03501 2.73849 6243 ft 275 kts 63°
2026-05-09 09:40 49.04766 2.76057 6733 ft 286 kts 32°
2026-05-09 09:40 49.06620 2.77114 7433 ft 286 kts
2026-05-09 09:41 49.08587 2.76828 8137 ft 287 kts 337°
2026-05-09 09:41 49.10239 2.75211 8836 ft 282 kts 309°
2026-05-09 09:41 49.11182 2.72650 9513 ft 278 kts 280°
2026-05-09 09:41 49.11203 2.69724 10133 ft 277 kts 256°
2026-05-09 09:42 49.10702 2.66844 10500 ft 290 kts 253°
2026-05-09 09:42 49.10049 2.63782 10681 ft 314 kts 248°
2026-05-09 09:42 49.09156 2.60612 10845 ft 336 kts 245°
2026-05-09 09:42 49.08179 2.57249 11122 ft 355 kts 246°
2026-05-09 09:43 49.07185 2.53754 11768 ft 362 kts 246°
2026-05-09 09:43 49.06193 2.50221 12473 ft 369 kts 246°
2026-05-09 09:43 49.05183 2.46591 13194 ft 374 kts 246°
2026-05-09 09:43 49.04148 2.42862 13939 ft 380 kts 246°
2026-05-09 09:44 49.03125 2.39187 14618 ft 383 kts 246°
2026-05-09 09:44 49.02218 2.35268 15226 ft 388 kts 258°
2026-05-09 09:44 49.02099 2.31178 15762 ft 393 kts 271°
2026-05-09 09:44 49.02212 2.26969 16357 ft 399 kts 270°
2026-05-09 09:45 49.02303 2.22791 17077 ft 401 kts 270°
2026-05-09 09:45 49.02381 2.18515 17807 ft 404 kts 270°
2026-05-09 09:45 49.02448 2.14223 18476 ft 408 kts 269°
2026-05-09 09:45 49.02506 2.09875 19031 ft 413 kts 269°
2026-05-09 09:46 49.02557 2.05485 19621 ft 416 kts 269°
2026-05-09 09:46 49.02605 2.01061 20215 ft 419 kts 269°
2026-05-09 09:46 49.02650 1.96600 20809 ft 423 kts 269°
2026-05-09 09:46 49.02694 1.92103 21376 ft 426 kts 269°
2026-05-09 09:47 49.02737 1.87566 21941 ft 430 kts 269°
2026-05-09 09:47 49.02780 1.82984 22492 ft 433 kts 269°
2026-05-09 09:47 49.02820 1.78388 23056 ft 436 kts 268°
2026-05-09 09:47 49.02859 1.73734 23578 ft 440 kts 268°
2026-05-09 09:48 49.02896 1.69063 24022 ft 444 kts 268°
2026-05-09 09:48 49.02932 1.64321 24430 ft 447 kts 268°
2026-05-09 09:48 49.02967 1.59568 24845 ft 451 kts 268°
2026-05-09 09:48 49.02999 1.54769 25235 ft 455 kts 268°
2026-05-09 09:49 49.03030 1.49940 25646 ft 458 kts 268°
2026-05-09 09:49 49.03058 1.45051 26042 ft 462 kts 267°
2026-05-09 09:49 49.03086 1.40200 26420 ft 465 kts 267°
2026-05-09 09:49 49.03112 1.35255 26794 ft 469 kts 267°
2026-05-09 09:50 49.03135 1.30265 27150 ft 472 kts 267°
2026-05-09 09:50 49.03144 1.25251 27517 ft 472 kts 264°
2026-05-09 09:50 49.02651 1.20334 27718 ft 469 kts 247°
2026-05-09 09:50 49.01235 1.15918 28005 ft 462 kts 236°
2026-05-09 09:51 48.99625 1.11637 28298 ft 467 kts 237°
2026-05-09 09:51 48.98062 1.07300 28656 ft 469 kts 238°
2026-05-09 09:51 48.96521 1.02910 29012 ft 471 kts 239°
2026-05-09 09:51 48.94990 0.98493 29341 ft 473 kts 239°
2026-05-09 09:52 48.93471 0.94095 29633 ft 475 kts 239°
2026-05-09 09:52 48.91928 0.89636 29913 ft 477 kts 239°
2026-05-09 09:52 48.90377 0.85167 30283 ft 476 kts 239°
2026-05-09 09:52 48.88834 0.80736 30675 ft 474 kts 239°
2026-05-09 09:53 48.87292 0.76317 31080 ft 471 kts 239°
2026-05-09 09:53 48.85752 0.71918 31438 ft 470 kts 239°
2026-05-09 09:53 48.84222 0.67556 31780 ft 469 kts 238°
2026-05-09 09:53 48.82682 0.63173 31962 ft 471 kts 239°
2026-05-09 09:54 48.81133 0.58772 31996 ft 472 kts 239°
2026-05-09 09:54 48.77855 0.50265 31997 ft 460 kts 229°
2026-05-09 09:55 48.73650 0.42972 32016 ft 461 kts 225°
2026-05-09 09:55 48.69366 0.35708 32009 ft 463 kts 227°
2026-05-09 09:56 48.65184 0.28374 32002 ft 463 kts 227°
2026-05-09 09:56 48.61011 0.20997 32000 ft 461 kts 227°
2026-05-09 09:57 48.56818 0.13616 31991 ft 458 kts 227°
2026-05-09 09:57 48.52701 0.06301 31997 ft 456 kts 228°
2026-05-09 09:58 48.48630 -0.00940 31997 ft 454 kts 228°
2026-05-09 09:58 48.44540 -0.08185 31988 ft 454 kts 228°
2026-05-09 09:59 48.40440 -0.15423 31983 ft 454 kts 228°
2026-05-09 09:59 48.36340 -0.22643 31987 ft 453 kts 228°
2026-05-09 10:00 48.32215 -0.29844 31984 ft 453 kts 227°
2026-05-09 10:00 48.28069 -0.36977 31986 ft 453 kts 227°
2026-05-09 10:01 48.23945 -0.44061 31977 ft 452 kts 227°
2026-05-09 10:01 48.19805 -0.51165 31982 ft 451 kts 227°
2026-05-09 10:02 48.15672 -0.58243 31990 ft 451 kts 227°
2026-05-09 10:02 48.11535 -0.65311 31996 ft 450 kts 227°
2026-05-09 10:03 48.07393 -0.72364 31996 ft 451 kts 227°
2026-05-09 10:03 48.03277 -0.79356 31993 ft 451 kts 227°
2026-05-09 10:04 47.99131 -0.86383 31996 ft 451 kts 227°
2026-05-09 10:04 47.94984 -0.93391 31988 ft 451 kts 227°
2026-05-09 10:05 47.90826 -1.00399 31980 ft 451 kts 227°
2026-05-09 10:05 47.86660 -1.07403 31966 ft 451 kts 227°
2026-05-09 10:06 47.82491 -1.14393 31964 ft 450 kts 227°
2026-05-09 10:06 47.78330 -1.21352 31952 ft 450 kts 227°
2026-05-09 10:07 47.74196 -1.28247 31958 ft 449 kts 227°
2026-05-09 10:07 47.70042 -1.35160 31956 ft 448 kts 227°
2026-05-09 10:08 47.65875 -1.42075 31957 ft 448 kts 227°
2026-05-09 10:08 47.62420 -1.47798 31951 ft 447 kts 227°
2026-05-09 10:09 47.57587 -1.55775 31955 ft 447 kts 227°
2026-05-09 10:09 47.54125 -1.61469 31951 ft 447 kts 227°
2026-05-09 10:10 47.49959 -1.68307 31953 ft 447 kts 227°
2026-05-09 10:10 47.45796 -1.75127 31955 ft 446 kts 227°
2026-05-09 10:11 47.41628 -1.81941 31961 ft 446 kts 227°
2026-05-09 10:11 47.37456 -1.88717 31963 ft 446 kts 225°
2026-05-09 10:12 47.32771 -1.94684 31970 ft 444 kts 216°
2026-05-09 10:12 47.27551 -1.99548 31968 ft 444 kts 211°
2026-05-09 10:13 47.22247 -2.04228 31973 ft 444 kts 211°
2026-05-09 10:13 47.16990 -2.08889 31965 ft 443 kts 212°
2026-05-09 10:14 47.11719 -2.13574 31960 ft 442 kts 212°
2026-05-09 10:14 47.06455 -2.18247 31953 ft 441 kts 212°
2026-05-09 10:15 47.01219 -2.22884 31951 ft 439 kts 212°
2026-05-09 10:15 46.96001 -2.27492 31940 ft 437 kts 212°
2026-05-09 10:16 46.90795 -2.32082 31946 ft 436 kts 212°
2026-05-09 10:16 46.85608 -2.36642 31940 ft 435 kts 212°
2026-05-09 10:17 46.80460 -2.41161 31937 ft 434 kts 212°
2026-05-09 10:17 46.75283 -2.45699 31939 ft 433 kts 212°
2026-05-09 10:18 46.70119 -2.50217 31940 ft 433 kts 212°
2026-05-09 10:18 46.64943 -2.54736 31937 ft 432 kts 212°
2026-05-09 10:19 46.59792 -2.59222 31938 ft 431 kts 212°
2026-05-09 10:19 46.54636 -2.63703 31931 ft 430 kts 212°
2026-05-09 10:20 46.49537 -2.68125 31934 ft 429 kts 212°
2026-05-09 10:20 46.44416 -2.72556 31923 ft 428 kts 212°
2026-05-09 10:21 46.39301 -2.76973 31930 ft 428 kts 212°
2026-05-09 10:21 46.34182 -2.81385 31925 ft 428 kts 211°
2026-05-09 10:22 46.29061 -2.85786 31929 ft 428 kts 212°
2026-05-09 10:22 46.24199 -2.90736 31918 ft 429 kts 220°
2026-05-09 10:23 46.19672 -2.96357 31922 ft 429 kts 220°
2026-05-09 10:23 46.15107 -3.01937 31912 ft 430 kts 219°
2026-05-09 10:24 46.10556 -3.07472 31915 ft 431 kts 219°
2026-05-09 10:24 46.05967 -3.13041 31910 ft 431 kts 219°
2026-05-09 10:25 46.01373 -3.18607 31908 ft 432 kts 219°
2026-05-09 10:25 45.96778 -3.24162 31904 ft 432 kts 219°
2026-05-09 10:26 45.92174 -3.29715 31905 ft 432 kts 219°
2026-05-09 10:26 45.87557 -3.35272 31898 ft 433 kts 219°
2026-05-09 10:27 45.82936 -3.40821 31896 ft 433 kts 219°
2026-05-09 10:27 45.78339 -3.46328 31890 ft 433 kts 218°
2026-05-09 10:28 45.73704 -3.51870 31892 ft 434 kts 218°
2026-05-09 10:28 45.69070 -3.57397 31884 ft 434 kts 218°
2026-05-09 10:29 45.64427 -3.62923 31882 ft 435 kts 218°
2026-05-09 10:29 45.59768 -3.68455 31880 ft 435 kts 218°
2026-05-09 10:30 45.55111 -3.73973 31879 ft 436 kts 218°
2026-05-09 10:30 45.50437 -3.79498 31878 ft 436 kts 218°
2026-05-09 10:31 45.45759 -3.85017 31873 ft 437 kts 217°
2026-05-09 10:31 45.41089 -3.90517 31954 ft 426 kts 216°
2026-05-09 10:31 45.38852 -3.93152 31869 ft 411 kts 216°
2026-05-09 10:32 45.36673 -3.95713 31872 ft 404 kts 216°
2026-05-09 10:32 45.32294 -4.00837 31875 ft 412 kts 216°
2026-05-09 10:33 45.27825 -4.06055 31868 ft 418 kts 216°
2026-05-09 10:33 45.23330 -4.11301 31856 ft 418 kts 216°
2026-05-09 10:34 45.18857 -4.16512 31855 ft 418 kts 216°
2026-05-09 10:34 45.12117 -4.24343 31851 ft 416 kts 216°
2026-05-09 10:35 45.07633 -4.29538 31850 ft 415 kts 216°
2026-05-09 10:35 45.03164 -4.34704 31849 ft 415 kts 215°
2026-05-09 10:36 44.98695 -4.39860 31847 ft 415 kts 215°
2026-05-09 10:36 44.94234 -4.44995 31849 ft 416 kts 215°
2026-05-09 10:37 44.89732 -4.50166 31848 ft 417 kts 215°
2026-05-09 10:37 44.85232 -4.55327 31847 ft 418 kts 215°
2026-05-09 10:38 44.80710 -4.60500 31846 ft 419 kts 215°
2026-05-09 10:38 44.76180 -4.65673 31842 ft 419 kts 215°
2026-05-09 10:39 44.71646 -4.70839 31845 ft 419 kts 215°
2026-05-09 10:39 44.67132 -4.75973 31828 ft 420 kts 214°
2026-05-09 10:40 44.62592 -4.81124 31833 ft 420 kts 214°
2026-05-09 10:40 44.58053 -4.86265 31839 ft 419 kts 214°
2026-05-09 10:41 44.53503 -4.91409 31836 ft 419 kts 214°
2026-05-09 10:41 44.48956 -4.96537 31835 ft 419 kts 214°
2026-05-09 10:42 44.44402 -5.01662 31835 ft 419 kts 214°
2026-05-09 10:42 44.39878 -5.06746 31838 ft 419 kts 214°
2026-05-09 10:43 44.35322 -5.11857 31833 ft 419 kts 214°
2026-05-09 10:43 44.30761 -5.16963 31832 ft 420 kts 214°
2026-05-09 10:44 44.26185 -5.22076 31829 ft 421 kts 214°
2026-05-09 10:44 44.21640 -5.27143 31829 ft 422 kts 214°
2026-05-09 10:46 44.10127 -5.39934 31827 ft 425 kts 214°
2026-05-09 10:46 44.05480 -5.45079 31819 ft 427 kts 213°
2026-05-09 10:47 44.00818 -5.50231 31816 ft 429 kts 214°
2026-05-09 10:47 43.96136 -5.55396 31817 ft 431 kts 213°
2026-05-09 10:48 43.91447 -5.60605 31815 ft 432 kts 214°
2026-05-09 10:48 43.86779 -5.65885 31811 ft 433 kts 214°
2026-05-09 10:49 43.82101 -5.71168 31813 ft 434 kts 214°
2026-05-09 10:49 43.77438 -5.76412 31817 ft 435 kts 214°
2026-05-09 10:50 43.72726 -5.81695 31819 ft 435 kts 214°
2026-05-09 10:50 43.68013 -5.86969 31826 ft 436 kts 214°
2026-05-09 10:51 43.63322 -5.92210 31830 ft 437 kts 214°
2026-05-09 10:51 43.58583 -5.97490 31831 ft 437 kts 214°
2026-05-09 10:52 43.53595 -6.02221 31832 ft 433 kts 205°
2026-05-09 10:52 43.48230 -6.05946 31830 ft 432 kts 203°
2026-05-09 10:53 43.42852 -6.09671 31824 ft 433 kts 204°
2026-05-09 10:53 43.37492 -6.13404 31807 ft 434 kts 204°
2026-05-09 10:54 43.32098 -6.17160 31823 ft 434 kts 204°
2026-05-09 10:54 43.27605 -6.20280 31808 ft 435 kts 204°
2026-05-09 10:55 43.22188 -6.24035 31794 ft 436 kts 204°
2026-05-09 10:55 43.16777 -6.27779 31804 ft 436 kts 204°
2026-05-09 10:56 43.11339 -6.31532 31800 ft 438 kts 204°
2026-05-09 10:56 43.05904 -6.35358 31809 ft 439 kts 204°
2026-05-09 10:57 43.00497 -6.39210 31815 ft 441 kts 204°
2026-05-09 10:57 42.95047 -6.43076 31807 ft 442 kts 204°
2026-05-09 10:58 42.89581 -6.46938 31811 ft 442 kts 204°
2026-05-09 10:58 42.84113 -6.50793 31812 ft 443 kts 204°
2026-05-09 10:59 42.78630 -6.54646 31799 ft 443 kts 204°
2026-05-09 10:59 42.73120 -6.58441 31811 ft 443 kts 204°
2026-05-09 11:00 42.67636 -6.62188 31805 ft 444 kts 204°
2026-05-09 11:00 42.62103 -6.65971 31805 ft 446 kts 204°
2026-05-09 11:01 42.56555 -6.69762 31812 ft 447 kts 204°
2026-05-09 11:01 42.50971 -6.73572 31813 ft 449 kts 204°
2026-05-09 11:02 42.45376 -6.77382 31800 ft 450 kts 204°
2026-05-09 11:02 42.39784 -6.81181 31803 ft 450 kts 204°
2026-05-09 11:03 42.34177 -6.84984 31804 ft 450 kts 204°
2026-05-09 11:03 42.28609 -6.88752 31801 ft 450 kts 204°
2026-05-09 11:04 42.23002 -6.92542 31795 ft 450 kts 204°
2026-05-09 11:04 42.17393 -6.96292 31805 ft 449 kts 204°
2026-05-09 11:05 42.11743 -6.99945 31805 ft 450 kts 204°
2026-05-09 11:05 42.06098 -7.03586 31798 ft 450 kts 204°
2026-05-09 11:06 42.00452 -7.07237 31795 ft 450 kts 204°
2026-05-09 11:06 41.94812 -7.10881 31816 ft 451 kts 204°
2026-05-09 11:07 41.89127 -7.14551 31812 ft 454 kts 204°
2026-05-09 11:07 41.83460 -7.18212 31773 ft 454 kts 204°
2026-05-09 11:08 41.77776 -7.21877 31769 ft 451 kts 204°
2026-05-09 11:08 41.72133 -7.25508 31803 ft 448 kts 204°
2026-05-09 11:09 41.66501 -7.29132 31793 ft 449 kts 204°
2026-05-09 11:09 41.60853 -7.32763 31762 ft 450 kts 204°
2026-05-09 11:10 41.55137 -7.36125 31794 ft 449 kts 200°
2026-05-09 11:10 41.49299 -7.39106 32128 ft 453 kts 199°
2026-05-09 11:10 41.46362 -7.40589 32460 ft 452 kts 199°
2026-05-09 11:11 41.43415 -7.42085 32696 ft 452 kts 200°
2026-05-09 11:11 41.37513 -7.45107 32774 ft 454 kts 200°
2026-05-09 11:12 41.31631 -7.48137 32749 ft 452 kts 200°
2026-05-09 11:12 41.25795 -7.51145 32760 ft 448 kts 200°
2026-05-09 11:13 41.20011 -7.54120 32758 ft 447 kts 200°
2026-05-09 11:13 41.14201 -7.57100 32768 ft 448 kts 200°
2026-05-09 11:14 41.08381 -7.60081 32770 ft 450 kts 200°
2026-05-09 11:14 41.02524 -7.63074 32755 ft 452 kts 200°
2026-05-09 11:15 40.96672 -7.66059 32763 ft 453 kts 200°
2026-05-09 11:15 40.90783 -7.69057 32765 ft 454 kts 200°
2026-05-09 11:16 40.84870 -7.72062 32746 ft 454 kts 200°
2026-05-09 11:16 40.78964 -7.75057 32751 ft 453 kts 200°
2026-05-09 11:17 40.73085 -7.78033 32756 ft 452 kts 201°
2026-05-09 11:17 40.67213 -7.81000 32755 ft 452 kts 201°
2026-05-09 11:18 40.61334 -7.83964 32755 ft 451 kts 201°
2026-05-09 11:18 40.55504 -7.86899 32759 ft 451 kts 201°
2026-05-09 11:19 40.49643 -7.89843 32750 ft 451 kts 201°
2026-05-09 11:19 40.43778 -7.92784 32754 ft 450 kts 201°
2026-05-09 11:20 40.37924 -7.95715 32752 ft 450 kts 201°
2026-05-09 11:20 40.32072 -7.98638 32747 ft 450 kts 201°
2026-05-09 11:21 40.26212 -8.01560 32747 ft 450 kts 201°
2026-05-09 11:21 40.20395 -8.04455 32746 ft 450 kts 201°
2026-05-09 11:22 40.14542 -8.07363 32751 ft 450 kts 201°
2026-05-09 11:22 40.08687 -8.10266 32745 ft 449 kts 202°
2026-05-09 11:23 40.02836 -8.13163 32744 ft 449 kts 202°
2026-05-09 11:23 39.96987 -8.16052 32746 ft 448 kts 202°
2026-05-09 11:24 39.91153 -8.18929 32735 ft 448 kts 202°
2026-05-09 11:24 39.85364 -8.21779 32745 ft 448 kts 202°
2026-05-09 11:25 39.79529 -8.24646 32741 ft 447 kts 202°
2026-05-09 11:25 39.73704 -8.27504 32737 ft 447 kts 202°
2026-05-09 11:26 39.67883 -8.30353 32749 ft 446 kts 203°
2026-05-09 11:26 39.62066 -8.33196 32731 ft 446 kts 203°
2026-05-09 11:27 39.56285 -8.36016 32723 ft 446 kts 203°
2026-05-09 11:27 39.50475 -8.38844 32740 ft 445 kts 203°
2026-05-09 11:28 39.44673 -8.41665 32732 ft 445 kts 204°
2026-05-09 11:28 39.38883 -8.44474 32731 ft 443 kts 204°
2026-05-09 11:29 39.33149 -8.47252 32731 ft 443 kts 204°
2026-05-09 11:29 39.27371 -8.50046 32739 ft 442 kts 204°
2026-05-09 11:30 39.21602 -8.52830 32743 ft 442 kts 204°
2026-05-09 11:30 39.15837 -8.55608 32742 ft 442 kts 204°
2026-05-09 11:31 39.10077 -8.58379 32745 ft 442 kts 205°
2026-05-09 11:31 39.04308 -8.61149 32746 ft 442 kts 205°
2026-05-09 11:32 38.98541 -8.63913 32746 ft 441 kts 205°
2026-05-09 11:32 38.92823 -8.66649 32741 ft 441 kts 205°
2026-05-09 11:33 38.87075 -8.69394 32752 ft 441 kts 205°
2026-05-09 11:33 38.78459 -8.73500 32747 ft 440 kts 205°
2026-05-09 11:34 38.72724 -8.76228 32745 ft 439 kts 206°
2026-05-09 11:34 38.66999 -8.78946 32749 ft 438 kts 206°
2026-05-09 11:35 38.61281 -8.81656 32752 ft 437 kts 206°
2026-05-09 11:35 38.55607 -8.84341 32750 ft 437 kts 206°
2026-05-09 11:36 38.49904 -8.87035 32769 ft 437 kts 206°
2026-05-09 11:36 38.44191 -8.89730 32760 ft 438 kts 206°
2026-05-09 11:37 38.38478 -8.92419 32761 ft 438 kts 206°
2026-05-09 11:37 38.33676 -8.94677 32778 ft 438 kts 206°
2026-05-09 11:38 38.27015 -8.97802 32779 ft 439 kts 206°
2026-05-09 11:38 38.21286 -9.00486 32781 ft 439 kts 206°
2026-05-09 11:39 38.16521 -9.02714 32781 ft 439 kts 206°
2026-05-09 11:40 38.07898 -9.06739 32783 ft 440 kts 206°
2026-05-09 11:40 38.02156 -9.09413 32787 ft 440 kts 206°
2026-05-09 11:41 37.96408 -9.12086 32797 ft 440 kts 206°
2026-05-09 11:41 37.90679 -9.14745 32796 ft 440 kts 206°
2026-05-09 11:42 37.84918 -9.17415 32792 ft 441 kts 206°
2026-05-09 11:42 37.79161 -9.20079 32797 ft 441 kts 206°
2026-05-09 11:43 37.73389 -9.22744 32800 ft 441 kts 206°
2026-05-09 11:43 37.67635 -9.25398 32797 ft 440 kts 206°
2026-05-09 11:44 37.61875 -9.28049 32795 ft 440 kts 206°
2026-05-09 11:44 37.56122 -9.30694 32797 ft 440 kts 206°
2026-05-09 11:45 37.50407 -9.33316 32800 ft 439 kts 207°
2026-05-09 11:45 37.44650 -9.35953 32805 ft 439 kts 207°
2026-05-09 11:46 37.38906 -9.38581 32804 ft 439 kts 207°
2026-05-09 11:46 37.33162 -9.41204 32820 ft 439 kts 207°
2026-05-09 11:47 37.27416 -9.43823 32814 ft 439 kts 207°
2026-05-09 11:47 37.21675 -9.46436 32815 ft 438 kts 207°
2026-05-09 11:48 37.15942 -9.49041 32823 ft 438 kts 207°
2026-05-09 11:48 37.10214 -9.51640 32819 ft 438 kts 207°
2026-05-09 11:49 37.04485 -9.54234 32820 ft 438 kts 208°
2026-05-09 11:49 36.98755 -9.56826 32821 ft 437 kts 208°
2026-05-09 11:50 36.93033 -9.59409 32826 ft 437 kts 208°
2026-05-09 11:50 36.87359 -9.61967 32827 ft 436 kts 208°
2026-05-09 11:51 36.81645 -9.64539 32830 ft 436 kts 208°
2026-05-09 11:51 36.75931 -9.67106 32834 ft 435 kts 208°
2026-05-09 11:52 36.70263 -9.69649 32835 ft 435 kts 208°
2026-05-09 11:52 36.64561 -9.72203 32836 ft 435 kts 208°
2026-05-09 11:53 36.58859 -9.74753 32839 ft 435 kts 208°
2026-05-09 11:53 36.53164 -9.77296 32843 ft 435 kts 208°
2026-05-09 11:54 36.47463 -9.79839 32837 ft 435 kts 208°
2026-05-09 11:54 36.41797 -9.82361 32852 ft 435 kts 208°
2026-05-09 11:55 36.36100 -9.84893 32849 ft 435 kts 208°
2026-05-09 11:56 36.18997 -9.92471 32854 ft 435 kts 208°
2026-05-09 11:57 36.13295 -9.94990 32860 ft 435 kts 208°
2026-05-09 11:57 36.07586 -9.97509 32866 ft 436 kts 208°
2026-05-09 11:58 36.01874 -10.00024 32871 ft 436 kts 208°
2026-05-09 11:58 35.96417 -10.03095 32887 ft 426 kts 217°
2026-05-09 11:59 35.91500 -10.07063 32887 ft 420 kts 223°
2026-05-09 11:59 35.86842 -10.11416 32877 ft 421 kts 223°
2026-05-09 12:00 35.82195 -10.15756 32880 ft 422 kts 223°
2026-05-09 12:00 35.77500 -10.20117 32883 ft 423 kts 223°
2026-05-09 12:01 35.72784 -10.24481 32883 ft 424 kts 223°
2026-05-09 12:01 35.68058 -10.28846 32885 ft 425 kts 223°
2026-05-09 12:02 35.63322 -10.33212 32886 ft 425 kts 223°
2026-05-09 12:02 35.58585 -10.37574 32887 ft 425 kts 223°
2026-05-09 12:03 35.53847 -10.41931 32894 ft 426 kts 223°
2026-05-09 12:03 35.49136 -10.46255 32888 ft 426 kts 223°
2026-05-09 12:04 35.44391 -10.50604 32885 ft 426 kts 223°
2026-05-09 12:04 35.39645 -10.54948 32898 ft 426 kts 223°
2026-05-09 12:05 35.34893 -10.59291 32896 ft 426 kts 223°
2026-05-09 12:05 35.30137 -10.63631 32894 ft 426 kts 223°
2026-05-09 12:06 35.25376 -10.67969 32896 ft 426 kts 222°
2026-05-09 12:06 35.20609 -10.72307 32900 ft 427 kts 222°
2026-05-09 12:07 35.15841 -10.76638 32902 ft 427 kts 222°
2026-05-09 12:07 35.11066 -10.80970 32911 ft 427 kts 222°
2026-05-09 12:08 35.06291 -10.85295 32908 ft 428 kts 222°
2026-05-09 12:08 35.01503 -10.89626 32908 ft 428 kts 222°
2026-05-09 12:09 34.96748 -10.93919 32910 ft 428 kts 223°
2026-05-09 12:09 34.91954 -10.98242 32906 ft 428 kts 223°
2026-05-09 12:10 34.82377 -11.06859 32920 ft 428 kts 223°
2026-05-09 12:11 34.77583 -11.11163 32917 ft 428 kts 223°
2026-05-09 12:11 34.72786 -11.15464 32904 ft 428 kts 223°
2026-05-09 12:12 34.67986 -11.19762 32925 ft 428 kts 223°
2026-05-09 12:12 34.63188 -11.24051 32922 ft 428 kts 223°
2026-05-09 12:13 34.58420 -11.28322 32925 ft 428 kts 223°
2026-05-09 12:13 34.53638 -11.32614 32925 ft 428 kts 223°
2026-05-09 12:14 34.48845 -11.36912 32928 ft 428 kts 223°
2026-05-09 12:14 34.44055 -11.41198 32932 ft 428 kts 223°
2026-05-09 12:15 34.39269 -11.45476 32932 ft 428 kts 223°
2026-05-09 12:15 34.34473 -11.49755 32939 ft 428 kts 223°
2026-05-09 12:16 34.29678 -11.54027 32937 ft 428 kts 223°
2026-05-09 12:16 34.24886 -11.58290 32934 ft 428 kts 223°
2026-05-09 12:17 34.20083 -11.62556 32936 ft 428 kts 224°
2026-05-09 12:17 34.15316 -11.66784 32941 ft 428 kts 224°
2026-05-09 12:18 34.10513 -11.71039 32940 ft 428 kts 224°
2026-05-09 12:18 34.05707 -11.75289 32945 ft 427 kts 224°
2026-05-09 12:19 34.00914 -11.79523 32948 ft 427 kts 224°
2026-05-09 12:19 33.96111 -11.83758 32945 ft 427 kts 224°
2026-05-09 12:20 33.91310 -11.87987 32956 ft 427 kts 224°
2026-05-09 12:20 33.86541 -11.92180 32956 ft 427 kts 224°
2026-05-09 12:21 33.81744 -11.96393 32955 ft 426 kts 224°
2026-05-09 12:21 33.76955 -12.00593 32950 ft 426 kts 224°
2026-05-09 12:22 33.72158 -12.04793 32955 ft 426 kts 225°
2026-05-09 12:22 33.67375 -12.08976 32956 ft 425 kts 225°
2026-05-09 12:23 33.63397 -12.12451 32951 ft 425 kts 225°
2026-05-09 12:23 33.58614 -12.16622 32964 ft 425 kts 225°
2026-05-09 12:24 33.53835 -12.20786 32959 ft 424 kts 225°
2026-05-09 12:24 33.49051 -12.24946 32966 ft 424 kts 225°
2026-05-09 12:25 33.44309 -12.29065 32963 ft 424 kts 225°
2026-05-09 12:25 33.39528 -12.33212 32964 ft 424 kts 225°
2026-05-09 12:26 33.34757 -12.37345 32973 ft 423 kts 225°
2026-05-09 12:26 33.29975 -12.41481 32970 ft 423 kts 225°
2026-05-09 12:27 33.25203 -12.45604 32973 ft 423 kts 225°
2026-05-09 12:27 33.20426 -12.49725 32974 ft 423 kts 225°
2026-05-09 12:28 33.15675 -12.53818 32980 ft 423 kts 225°
2026-05-09 12:28 33.10901 -12.57925 32978 ft 423 kts 225°
2026-05-09 12:29 33.06120 -12.62032 32974 ft 423 kts 225°
2026-05-09 12:29 33.01335 -12.66137 32983 ft 423 kts 225°
2026-05-09 12:30 32.96550 -12.70238 32984 ft 423 kts 225°
2026-05-09 12:30 32.89401 -12.76354 32986 ft 423 kts 225°
2026-05-09 12:31 32.82220 -12.82476 32987 ft 424 kts 225°
2026-05-09 12:32 32.77414 -12.86543 32994 ft 424 kts 225°
2026-05-09 12:32 32.72609 -12.90604 32995 ft 424 kts 225°
2026-05-09 12:33 32.67794 -12.94670 32998 ft 424 kts 225°
2026-05-09 12:33 32.62984 -12.98729 32995 ft 424 kts 225°
2026-05-09 12:34 32.58172 -13.02783 32997 ft 424 kts 225°
2026-05-09 12:34 32.53357 -13.06836 32999 ft 424 kts 225°
2026-05-09 12:35 32.48568 -13.10860 33004 ft 425 kts 225°
2026-05-09 12:35 32.43745 -13.14907 32994 ft 425 kts 225°
2026-05-09 12:36 32.38912 -13.18959 33007 ft 425 kts 224°
2026-05-09 12:36 32.34079 -13.23004 33007 ft 425 kts 224°
2026-05-09 12:37 32.29247 -13.27044 33007 ft 426 kts 224°
2026-05-09 12:37 32.24407 -13.31085 33008 ft 426 kts 224°
2026-05-09 12:38 32.19564 -13.35122 33011 ft 426 kts 224°
2026-05-09 12:38 32.14716 -13.39158 33010 ft 426 kts 224°
2026-05-09 12:39 32.09855 -13.43200 33005 ft 427 kts 224°
2026-05-09 12:39 32.04997 -13.47234 33014 ft 427 kts 224°
2026-05-09 12:40 32.00130 -13.51270 33018 ft 427 kts 224°
2026-05-09 12:40 31.95296 -13.55274 33014 ft 428 kts 224°
2026-05-09 12:41 31.90431 -13.59297 33020 ft 428 kts 224°
2026-05-09 12:41 31.85558 -13.63323 33014 ft 428 kts 224°
2026-05-09 12:42 31.80681 -13.67346 33021 ft 428 kts 224°
2026-05-09 12:42 31.75803 -13.71364 33021 ft 428 kts 224°
2026-05-09 12:43 31.70915 -13.75387 33022 ft 428 kts 224°
2026-05-09 12:43 31.66062 -13.79374 33024 ft 428 kts 224°
2026-05-09 12:44 31.61175 -13.83385 33025 ft 429 kts 224°
2026-05-09 12:44 31.56277 -13.87399 33025 ft 429 kts 224°
2026-05-09 12:45 31.51386 -13.91402 33031 ft 429 kts 224°
2026-05-09 12:45 31.46476 -13.95417 33023 ft 430 kts 224°
2026-05-09 12:46 31.41567 -13.99425 33037 ft 430 kts 224°
2026-05-09 12:46 31.36661 -14.03426 33034 ft 430 kts 224°
2026-05-09 12:47 31.31753 -14.07422 33034 ft 430 kts 224°
2026-05-09 12:47 31.26846 -14.11436 33037 ft 430 kts 224°
2026-05-09 12:48 31.21955 -14.15459 33039 ft 430 kts 224°
2026-05-09 12:48 31.17059 -14.19483 33042 ft 430 kts 224°
2026-05-09 12:49 31.12194 -14.23471 33039 ft 430 kts 224°
2026-05-09 12:49 31.07285 -14.27489 33041 ft 431 kts 224°
2026-05-09 12:50 31.02377 -14.31502 33045 ft 431 kts 224°
2026-05-09 12:50 30.97453 -14.35523 33044 ft 431 kts 224°
2026-05-09 12:51 30.92490 -14.39465 33046 ft 436 kts 219°
2026-05-09 12:51 30.87013 -14.42618 33056 ft 447 kts 212°
2026-05-09 12:52 30.81062 -14.44980 33058 ft 454 kts 208°
2026-05-09 12:52 30.75021 -14.47162 33046 ft 454 kts 208°
2026-05-09 12:53 30.68999 -14.49346 33054 ft 453 kts 208°
2026-05-09 12:53 30.62991 -14.51544 33051 ft 452 kts 208°
2026-05-09 12:54 30.56981 -14.53751 33051 ft 452 kts 208°
2026-05-09 12:54 30.50981 -14.55953 33053 ft 452 kts 208°
2026-05-09 12:55 30.44976 -14.58154 33063 ft 452 kts 208°
2026-05-09 12:55 30.39010 -14.60337 33062 ft 453 kts 208°
2026-05-09 12:56 30.32996 -14.62534 33066 ft 453 kts 208°
2026-05-09 12:56 30.26973 -14.64732 33064 ft 454 kts 207°
2026-05-09 12:57 30.20947 -14.66927 33069 ft 454 kts 207°
2026-05-09 12:57 30.14919 -14.69121 33070 ft 454 kts 207°
2026-05-09 12:58 30.08879 -14.71317 33070 ft 454 kts 207°
2026-05-09 12:58 30.02841 -14.73509 33072 ft 455 kts 207°
2026-05-09 12:59 29.96809 -14.75696 33070 ft 455 kts 207°
2026-05-09 12:59 29.90772 -14.77881 33074 ft 454 kts 207°
2026-05-09 13:00 29.84741 -14.80062 33076 ft 454 kts 207°
2026-05-09 13:00 29.78741 -14.82229 33087 ft 454 kts 207°
2026-05-09 13:01 29.72710 -14.84405 33072 ft 454 kts 207°
2026-05-09 13:01 29.66681 -14.86577 33081 ft 454 kts 207°
2026-05-09 13:02 29.60639 -14.88751 33078 ft 454 kts 207°
2026-05-09 13:02 29.54606 -14.90919 33084 ft 454 kts 207°
2026-05-09 13:03 29.48570 -14.93085 33074 ft 454 kts 207°
2026-05-09 13:03 29.42565 -14.95238 33081 ft 455 kts 207°
2026-05-09 13:04 29.36522 -14.97401 33104 ft 456 kts 207°
2026-05-09 13:04 29.33488 -14.98488 33311 ft 457 kts 207°
2026-05-09 13:04 29.30463 -14.99568 33671 ft 455 kts 207°
2026-05-09 13:04 29.27448 -15.00642 34060 ft 452 kts 207°
2026-05-09 13:05 29.24433 -15.01718 34075 ft 456 kts 207°
2026-05-09 13:05 29.18395 -15.03873 34078 ft 452 kts 207°
2026-05-09 13:06 29.12399 -15.06007 34089 ft 450 kts 207°
2026-05-09 13:06 29.07429 -15.07776 34104 ft 449 kts 207°
2026-05-09 13:07 29.01458 -15.09900 34104 ft 450 kts 207°
2026-05-09 13:07 28.94464 -15.12385 34088 ft 450 kts 207°
2026-05-09 13:08 28.89485 -15.14151 34089 ft 451 kts 207°
2026-05-09 13:08 28.83477 -15.16279 34094 ft 452 kts 207°
2026-05-09 13:09 28.77503 -15.18392 34093 ft 452 kts 207°
2026-05-09 13:09 28.71447 -15.20531 34088 ft 453 kts 207°
2026-05-09 13:10 28.65458 -15.22644 34090 ft 453 kts 207°
2026-05-09 13:10 28.59436 -15.24767 34090 ft 453 kts 206°
2026-05-09 13:11 28.53402 -15.26891 34094 ft 453 kts 206°
2026-05-09 13:11 28.47373 -15.29010 34089 ft 453 kts 206°
2026-05-09 13:12 28.41350 -15.31126 34088 ft 453 kts 206°
2026-05-09 13:12 28.35364 -15.33225 34088 ft 453 kts 206°
2026-05-09 13:13 28.29335 -15.35338 34088 ft 453 kts 206°
2026-05-09 13:13 28.23300 -15.37451 34097 ft 453 kts 206°
2026-05-09 13:14 28.17256 -15.39564 34096 ft 454 kts 206°
2026-05-09 13:16 27.95316 -15.51994 34106 ft 443 kts 221°
2026-05-09 13:16 27.90141 -15.55812 34092 ft 445 kts 220°
2026-05-09 13:17 27.84954 -15.59613 34125 ft 442 kts 220°
2026-05-09 13:17 27.79806 -15.63382 34076 ft 439 kts 220°
2026-05-09 13:18 27.74693 -15.67128 34086 ft 437 kts 221°
2026-05-09 13:18 27.69600 -15.70852 34093 ft 437 kts 220°
2026-05-09 13:19 27.64487 -15.74593 34098 ft 438 kts 220°
2026-05-09 13:19 27.59359 -15.78344 34090 ft 441 kts 220°
2026-05-09 13:20 27.54186 -15.82122 34091 ft 443 kts 220°
2026-05-09 13:20 27.49026 -15.85885 34093 ft 445 kts 220°
2026-05-09 13:21 27.43816 -15.89680 34094 ft 446 kts 220°
2026-05-09 13:21 27.38584 -15.93487 34091 ft 447 kts 220°
2026-05-09 13:22 27.33355 -15.97287 34092 ft 447 kts 220°
2026-05-09 13:22 27.28132 -16.01078 34093 ft 447 kts 220°
2026-05-09 13:23 27.15092 -16.10528 34092 ft 447 kts 220°
2026-05-09 13:24 27.09850 -16.14319 34094 ft 447 kts 220°
2026-05-09 13:24 27.04604 -16.18109 34099 ft 448 kts 220°
2026-05-09 13:25 26.99361 -16.21893 34099 ft 448 kts 220°
2026-05-09 13:26 26.91482 -16.27572 34120 ft 449 kts 220°
2026-05-09 13:26 26.86258 -16.31325 34106 ft 450 kts 220°
2026-05-09 13:27 26.80966 -16.35110 34102 ft 450 kts 220°
2026-05-09 13:27 26.75679 -16.38888 34109 ft 451 kts 220°
2026-05-09 13:28 26.70393 -16.42663 34105 ft 451 kts 220°
2026-05-09 13:28 26.65096 -16.46443 34109 ft 451 kts 220°
2026-05-09 13:29 26.59798 -16.50219 34105 ft 452 kts 220°
2026-05-09 13:29 26.54529 -16.53971 34108 ft 452 kts 220°
2026-05-09 13:30 26.49221 -16.57747 34107 ft 452 kts 220°
2026-05-09 13:30 26.43913 -16.61517 34108 ft 453 kts 220°
2026-05-09 13:31 26.38596 -16.65290 34112 ft 453 kts 220°
2026-05-09 13:31 26.33277 -16.69061 34112 ft 453 kts 219°
2026-05-09 13:32 26.27949 -16.72835 34113 ft 454 kts 219°
2026-05-09 13:32 26.19941 -16.78499 34111 ft 454 kts 219°
2026-05-09 13:33 26.14602 -16.82278 34111 ft 455 kts 219°
2026-05-09 13:33 26.09294 -16.86040 34107 ft 455 kts 219°
2026-05-09 13:34 26.03948 -16.89825 34113 ft 455 kts 219°
2026-05-09 13:34 25.98595 -16.93610 34113 ft 456 kts 219°
2026-05-09 13:35 25.93235 -16.97396 34113 ft 456 kts 219°
2026-05-09 13:35 25.87907 -17.01154 34114 ft 456 kts 219°
2026-05-09 13:36 25.82544 -17.04934 34116 ft 457 kts 219°
2026-05-09 13:36 25.77166 -17.08719 34117 ft 457 kts 219°
2026-05-09 13:37 25.71786 -17.12502 34113 ft 457 kts 219°
2026-05-09 13:37 25.66448 -17.16252 34116 ft 457 kts 219°
2026-05-09 13:38 25.61065 -17.20029 34115 ft 458 kts 219°
2026-05-09 13:38 25.55684 -17.23801 34116 ft 458 kts 219°
2026-05-09 13:39 25.50295 -17.27574 34112 ft 458 kts 219°
2026-05-09 13:39 25.44901 -17.31347 34104 ft 459 kts 218°
2026-05-09 13:40 25.39506 -17.35116 34113 ft 459 kts 218°
2026-05-09 13:40 25.34104 -17.38886 34111 ft 459 kts 218°
2026-05-09 13:41 25.28704 -17.42651 34115 ft 459 kts 218°
2026-05-09 13:41 25.23283 -17.46426 34113 ft 460 kts 218°
2026-05-09 13:42 25.17868 -17.50193 34114 ft 460 kts 218°
2026-05-09 13:42 25.12484 -17.53936 34112 ft 460 kts 218°